Terminal Aerodrome Forecast
Issued by NWS Missoula, MT

Home | Current Version | Previous Version | Text Only | Print | Product List | Glossary On
Versions: 1 2 3 4 5 6 7 8 9 10 11 12 13
000
FTUS45 KMSO 302300
TAFGPI
TAF
KGPI 302322Z 3100/3124 VRB05KT P6SM VCTS BKN100CB
     FM310100 VRB05KT P6SM SCT100=

USA.gov is the U.S. government's official web portal to all federal, state and local government web resources and services.